Location: Boitzum
(52.1496°N, 9.6943°E)
Time: 00:28:01
(UTC+00:00)

Meteor 1-11 Rocket - Pass Details

Date: 13 January 2026
Orbit: 830 x 915 km, 81.2° (Epoch: 17 February)

Event Time Altitude Azimuth Distance (km) Brightness Sun altitude
Exits shadow 05:13:30 31° 256° (WSW) 1,525 4.5 -19.3°
Maximum altitude 05:15:19 38° 293° (WNW) 1,330 4.2 -19.0°
Drops below altitude 10° 05:20:41 10° 1° (N) 2,535 6.1 -18.2°
Sets 05:23:18 0° 10° (N) 3,463 6.9 -17.8°
